Location: St Paul
(33.9360°N, 83.4200°W)
Time: 12:53:46
(UTC-04:00)

Cosmos 1408 Rocket - Pass Details

Date: 06 October 2017
Orbit: 601 x 631 km, 82.6° (Epoch: 18 October)

Event Time Altitude Azimuth Distance (km) Brightness Sun altitude
Rises 20:18:58 0° 1° (N) 2,886 7.0 -15.0°
Reaches altitude 10° 20:21:16 10° 8° (N) 1,982 6.1 -15.4°
Maximum altitude 20:25:29 45° 81° (E) 853 3.8 -16.3°
Enters shadow 20:28:55 15° 150° (SSE) 1,692 5.5 -17.0°
